SCP
6 4 0 2 4 5 3 1 1 1 1 0 0 0 0 0 0 0 0 0 0 0 0 0 0 0 0 0 0 0 0 0
4 5 2 1 2 1 0 0 0 0 0 0 0 0 0 0 0 0 0 0 0 0 0 0 0 0 0 0 0 0 0 0
2 0 2 0 0 0 0 0 0 0 0 0 0 0 0 0 0 0 0 0 0 0 0 0 0 0 0 0 0 0 0 0
1 1 0 0 0 0 0 0 0 0 0 0 0 0 0 0 0 0 0 0 0 0 0 0 0 0 0 0 0 0 0 0
0 0 0 0 0 0 0 0 0 0 -0 -0 0 0 0 0 0 0 0 0 0 0 0 0 0 0 0 0 0 0 0 0
0 0 0 0 0 0 0 0 0 0 0 0 0 0 0 0 0 0 0 0 0 0 0 0 0 0 0 0 0 0 0 0
0 0 0 0 0 0 0 0 0 0 0 0 0 -0 -0 -0 0 0 0 0 0 0 0 0 0 0 0 0 0 0 0 0
0 0 0 0 0 0 0 0 0 0 0 -0 -0 -0 -0 0 0 0 0 0 0 0 0 0 0 0 0 0 0 0 0 0
0 0 0 0 0 0 0 0 0 0 -0 -0 -0 0 0 0 0 0 0 0 0 0 0 0 0 0 0 0 0 0 0 0
0 0 0 0 0 0 0 0 0 -0 -0 0 0 0 0 0 0 0 0 0 0 0 0 0 0 0 0 0 0 0 0 0
0 0 0 0 0 0 0 0 -0 0 0 0 0 0 0 0 0 0 0 0 0 0 0 0 0 0 0 0 0 0 0 0
0 0 0 0 0 0 0 0 0 0 0 0 0 0 0 0 0 0 0 0 0 0 0 0 0 0 0 0 0 0 0 0
0 0 0 0 0 0 0 0 0 0 0 0 0 0 0 0 0 0 0 0 0 0 0 0 0 0 0 0 0 0 0 0
0 0 0 0 0 0 0 0 0 0 0 0 0 0 0 0 0 0 0 0 0 0 0 0 0 0 0 0 0 0 0 0
0 0 0 0 0 0 0 0 0 0 0 0 0 0 0 0 0 0 0 0 0 0 0 0 0 0 0 -0 -0 -0 -0 0
0 0 0 0 0 0 0 0 0 0 0 0 0 0 0 0 0 0 0 0 0 0 0 0 0 0 0 0 0 0 0 0
0 0 0 0 0 0 0 0 0 0 0 0 0 0 0 0 0 0 0 0 0 0 0 0 0 0 -0 -0 0 0 0 0
0 0 0 0 0 0 0 0 0 0 0 0 0 0 0 0 0 0 0 0 0 0 0 0 0 0 0 0 0 0 0 0
0 0 0 0 0 0 0 0 0 0 0 0 0 0 0 0 0 0 0 0 0 0 0 0 0 0 0 0 0 0 0 0
0 0 0 0 0 0 0 0 0 0 0 0 0 0 0 0 0 0 0 0 0 0 0 0 0 0 0 0 0 0 0 0
Wind_Speed_500mb
72 108 95 95 90 97 95 94 93 81 75 68 67 57 55 55 50 46 36 30 23 19 15 10 7 6 8 9 8 9 5 6
73 74 68 109 100 109 99 95 90 82 79 67 67 64 61 58 49 42 33 26 23 19 15 13 12 11 10 10 7 4 7 6
82 71 86 98 100 102 99 93 86 88 72 69 68 62 57 50 46 40 34 28 23 19 15 12 10 5 4 11 7 5 5 4
80 86 93 97 94 97 97 92 93 79 68 66 63 59 55 49 44 40 34 28 25 22 18 14 8 6 5 5 5 10 1 3
72 82 94 101 102 98 94 90 83 69 68 67 63 58 55 48 42 38 32 27 23 20 17 13 11 10 9 7 7 5 7 11
69 88 92 96 96 94 94 85 80 78 70 68 63 57 52 46 41 37 32 28 26 23 20 17 13 12 10 8 7 5 3 7
85 93 97 96 92 92 92 88 82 73 75 71 61 55 49 45 41 38 34 31 28 24 21 18 12 12 11 11 12 2 15 11
91 101 104 97 90 84 84 81 80 77 70 64 56 51 49 45 41 38 34 31 27 20 20 18 10 11 9 10 15 4 10 11
94 93 92 90 87 87 84 80 76 70 64 58 55 52 50 45 42 37 33 28 23 20 20 16 15 15 14 10 4 10 7 9
90 94 86 81 81 83 80 75 72 67 60 58 61 52 45 42 39 35 30 25 23 21 19 16 21 24 28 25 18 13 4 12
84 89 88 77 74 75 79 70 64 60 62 60 53 48 44 38 34 31 24 23 20 19 17 18 20 19 23 33 34 34 28 13
78 79 80 75 64 63 65 63 59 58 59 58 50 46 42 37 31 28 25 22 20 20 16 15 12 12 15 13 14 17 20 17
74 74 76 71 63 62 59 59 58 57 52 49 48 45 40 42 39 28 26 33 29 25 19 21 13 13 18 21 22 26 25 32
73 70 68 63 59 56 54 52 57 54 52 44 41 39 36 34 35 37 33 26 17 22 25 20 15 19 20 21 30 32 36 35
66 67 62 58 55 52 46 46 48 43 43 42 40 38 35 35 33 32 36 30 22 21 21 21 19 23 24 28 35 35 39 29
61 60 58 56 53 49 43 41 42 42 42 42 36 35 35 32 31 30 24 22 20 23 26 25 29 31 30 28 32 29 23 24
57 57 55 51 48 46 42 41 42 44 40 37 36 35 33 31 27 27 23 20 17 12 14 21 30 31 34 33 31 21 21 22
64 63 59 56 49 42 40 43 42 38 39 42 37 37 34 30 26 24 21 20 18 14 10 8 8 19 16 17 19 19 19 20
53 59 52 53 50 43 41 41 38 39 43 36 36 32 30 27 24 21 19 16 14 11 11 13 23 23 13 15 16 17 18 18
42 48 45 40 44 40 40 39 36 33 36 30 29 28 27 24 21 20 17 15 13 10 11 18 26 18 12 13 14 15 15 17
Wind_Direction_500mb
149 128 146 158 144 144 145 148 151 155 152 151 147 150 151 150 150 146 150 158 154 138 136 131 109 75 79 78 68 60 44 31
132 127 124 134 140 147 147 147 151 148 146 148 142 145 147 150 152 152 149 145 140 138 124 107 98 90 80 71 59 28 37 12
128 125 128 138 136 141 144 143 144 141 137 138 140 138 141 137 138 138 137 134 129 121 117 111 107 147 138 145 134 68 20 30
125 132 136 138 138 140 141 143 143 145 130 129 131 130 130 130 134 133 131 126 119 113 106 103 114 110 134 171 171 110 158 270
126 131 137 135 139 139 139 143 142 133 130 131 132 133 134 129 126 125 125 124 121 116 113 124 131 131 128 128 137 93 280 298
128 131 132 134 137 140 138 138 139 136 131 134 136 132 125 125 126 128 127 122 113 107 99 98 116 117 114 110 105 66 290 285
127 131 132 134 137 137 139 141 141 135 130 127 127 128 126 124 122 122 117 113 108 105 102 88 93 105 105 105 95 53 343 342
122 122 120 119 122 130 129 125 125 122 122 127 129 129 124 122 120 115 111 106 104 104 92 92 74 94 89 113 102 68 11 345
114 114 115 118 121 121 121 124 124 128 129 129 129 126 123 122 118 116 114 115 111 105 95 73 96 69 68 74 95 40 59 355
110 111 113 119 122 123 122 123 127 131 128 129 127 120 121 119 119 113 109 103 100 102 95 75 41 41 34 30 24 22 48 36
110 111 113 117 120 124 122 125 130 132 127 123 121 119 115 112 112 108 105 102 103 109 106 95 73 50 21 21 17 21 20 29
113 113 113 116 121 123 123 127 128 125 125 124 120 117 117 110 103 99 102 101 104 108 103 96 82 60 48 59 20 19 14 28
112 113 115 118 121 122 124 127 128 124 124 124 120 117 122 130 123 110 131 127 122 119 110 116 104 72 56 51 48 53 57 54
113 114 115 117 118 118 120 124 128 125 121 123 124 120 115 114 120 120 120 130 135 127 118 104 97 80 68 68 64 66 63 49
112 113 114 115 115 116 124 123 118 123 126 124 126 125 124 120 120 116 120 114 106 98 91 87 81 72 67 70 57 46 43 46
111 113 114 116 118 118 120 122 121 123 126 124 126 127 127 126 125 121 114 105 101 90 72 71 68 64 63 70 58 42 36 27
111 110 110 114 115 115 119 123 123 121 121 124 122 124 129 127 127 127 128 121 110 102 44 38 43 44 43 40 44 40 32 24
112 111 112 111 108 111 115 116 118 124 130 131 127 122 121 126 126 124 124 120 116 113 109 89 60 39 42 37 32 34 30 22
113 112 112 115 116 120 123 130 126 127 123 118 124 125 123 123 126 124 122 120 120 116 86 96 111 79 50 44 31 25 23 19
110 105 109 114 116 120 123 121 124 126 126 127 128 126 125 126 126 122 124 124 120 111 97 73 77 67 49 39 32 19 14 13
Wind_Speed_850mb
72 108 95 95 90 97 95 94 93 81 75 68 67 57 55 55 50 46 36 30 23 19 15 10 7 6 8 9 8 9 5 6
73 74 68 109 100 109 99 95 90 82 79 67 67 64 61 58 49 42 33 26 23 19 15 13 12 11 10 10 7 4 7 6
82 71 86 98 100 102 99 93 86 88 72 69 68 62 57 50 46 40 34 28 23 19 15 12 10 5 4 11 7 5 5 4
80 86 93 97 94 97 97 92 93 79 68 66 63 59 55 49 44 40 34 28 25 22 18 14 8 6 5 5 5 10 1 3
72 82 94 101 102 98 94 90 83 69 68 67 63 58 55 48 42 38 32 27 23 20 17 13 11 10 9 7 7 5 7 11
69 88 92 96 96 94 94 85 80 78 70 68 63 57 52 46 41 37 32 28 26 23 20 17 13 12 10 8 7 5 3 7
85 93 97 96 92 92 92 88 82 73 75 71 61 55 49 45 41 38 34 31 28 24 21 18 12 12 11 11 12 2 15 11
91 101 104 97 90 84 84 81 80 77 70 64 56 51 49 45 41 38 34 31 27 20 20 18 10 11 9 10 15 4 10 11
94 93 92 90 87 87 84 80 76 70 64 58 55 52 50 45 42 37 33 28 23 20 20 16 15 15 14 10 4 10 7 9
90 94 86 81 81 83 80 75 72 67 60 58 61 52 45 42 39 35 30 25 23 21 19 16 21 24 28 25 18 13 4 12
84 89 88 77 74 75 79 70 64 60 62 60 53 48 44 38 34 31 24 23 20 19 17 18 20 19 23 33 34 34 28 13
78 79 80 75 64 63 65 63 59 58 59 58 50 46 42 37 31 28 25 22 20 20 16 15 12 12 15 13 14 17 20 17
74 74 76 71 63 62 59 59 58 57 52 49 48 45 40 42 39 28 26 33 29 25 19 21 13 13 18 21 22 26 25 32
73 70 68 63 59 56 54 52 57 54 52 44 41 39 36 34 35 37 33 26 17 22 25 20 15 19 20 21 30 32 36 35
66 67 62 58 55 52 46 46 48 43 43 42 40 38 35 35 33 32 36 30 22 21 21 21 19 23 24 28 35 35 39 29
61 60 58 56 53 49 43 41 42 42 42 42 36 35 35 32 31 30 24 22 20 23 26 25 29 31 30 28 32 29 23 24
57 57 55 51 48 46 42 41 42 44 40 37 36 35 33 31 27 27 23 20 17 12 14 21 30 31 34 33 31 21 21 22
64 63 59 56 49 42 40 43 42 38 39 42 37 37 34 30 26 24 21 20 18 14 10 8 8 19 16 17 19 19 19 20
53 59 52 53 50 43 41 41 38 39 43 36 36 32 30 27 24 21 19 16 14 11 11 13 23 23 13 15 16 17 18 18
42 48 45 40 44 40 40 39 36 33 36 30 29 28 27 24 21 20 17 15 13 10 11 18 26 18 12 13 14 15 15 17
Wind_Direction_850mb
149 128 146 158 144 144 145 148 151 155 152 151 147 150 151 150 150 146 150 158 154 138 136 131 109 75 79 78 68 60 44 31
132 127 124 134 140 147 147 147 151 148 146 148 142 145 147 150 152 152 149 145 140 138 124 107 98 90 80 71 59 28 37 12
128 125 128 138 136 141 144 143 144 141 137 138 140 138 141 137 138 138 137 134 129 121 117 111 107 147 138 145 134 68 20 30
125 132 136 138 138 140 141 143 143 145 130 129 131 130 130 130 134 133 131 126 119 113 106 103 114 110 134 171 171 110 158 270
126 131 137 135 139 139 139 143 142 133 130 131 132 133 134 129 126 125 125 124 121 116 113 124 131 131 128 128 137 93 280 298
128 131 132 134 137 140 138 138 139 136 131 134 136 132 125 125 126 128 127 122 113 107 99 98 116 117 114 110 105 66 290 285
127 131 132 134 137 137 139 141 141 135 130 127 127 128 126 124 122 122 117 113 108 105 102 88 93 105 105 105 95 53 343 342
122 122 120 119 122 130 129 125 125 122 122 127 129 129 124 122 120 115 111 106 104 104 92 92 74 94 89 113 102 68 11 345
114 114 115 118 121 121 121 124 124 128 129 129 129 126 123 122 118 116 114 115 111 105 95 73 96 69 68 74 95 40 59 355
110 111 113 119 122 123 122 123 127 131 128 129 127 120 121 119 119 113 109 103 100 102 95 75 41 41 34 30 24 22 48 36
110 111 113 117 120 124 122 125 130 132 127 123 121 119 115 112 112 108 105 102 103 109 106 95 73 50 21 21 17 21 20 29
113 113 113 116 121 123 123 127 128 125 125 124 120 117 117 110 103 99 102 101 104 108 103 96 82 60 48 59 20 19 14 28
112 113 115 118 121 122 124 127 128 124 124 124 120 117 122 130 123 110 131 127 122 119 110 116 104 72 56 51 48 53 57 54
113 114 115 117 118 118 120 124 128 125 121 123 124 120 115 114 120 120 120 130 135 127 118 104 97 80 68 68 64 66 63 49
112 113 114 115 115 116 124 123 118 123 126 124 126 125 124 120 120 116 120 114 106 98 91 87 81 72 67 70 57 46 43 46
111 113 114 116 118 118 120 122 121 123 126 124 126 127 127 126 125 121 114 105 101 90 72 71 68 64 63 70 58 42 36 27
111 110 110 114 115 115 119 123 123 121 121 124 122 124 129 127 127 127 128 121 110 102 44 38 43 44 43 40 44 40 32 24
112 111 112 111 108 111 115 116 118 124 130 131 127 122 121 126 126 124 124 120 116 113 109 89 60 39 42 37 32 34 30 22
113 112 112 115 116 120 123 130 126 127 123 118 124 125 123 123 126 124 122 120 120 116 86 96 111 79 50 44 31 25 23 19
110 105 109 114 116 120 123 121 124 126 126 127 128 126 125 126 126 122 124 124 120 111 97 73 77 67 49 39 32 19 14 13